Change the Weather History Date:

Monday, January 27, 2014

  Actual Average Record
Temperature  
Mean Temperature -1 °F -  
Max Temperature 5 °F 26 °F 55 °F (2002)
Min Temperature -7 °F 11 °F -14 °F (1963)
Degree Days  
Heating Degree Days 66    
Moisture  
Dew Point -14 °F    
Average Humidity 58    
Maximum Humidity 72    
Minimum Humidity 50    
Precipitation  
Precipitation 0.00 in - - ()
Sea Level Pressure  
Sea Level Pressure 30.13 in    
Wind  
Wind Speed 17 mph (WNW)    
Max Wind Speed 23 mph    
Max Gust Speed 34 mph    
Visibility 8 miles    
Events Snow    
Averages and records for this station are not official NWS values.
T = Trace of Precipitation, MM = Missing Value Source: NWS Daily Summary

Daily Weather History Graph

Daily Weather History Graph

Search for Another Location

Airport or City:

Trip Planner

Search our weather history database for the weather conditions in past years. The results will help you decide how hot, cold, wet, or windy it might be!

Date:

Astronomy

Jan. 27, 2014 Rise Set
Actual Time 7:12 AM CST 4:57 PM CST
Civil Twilight 6:41 AM CST 5:28 PM CST
Nautical Twilight 6:07 AM CST 6:02 PM CST
Astronomical Twilight 5:33 AM CST 6:36 PM CST
Moon 3:54 AM CST (1/27) 1:42 PM CST (1/27)
Length of Visible Light 10h 46m
Length of Day
9h 45m
Waning Crescent, 14% of the Moon is Illuminated
Jan 27
Waning Crescent
Jan 30
New
Feb 6
First Quarter
Feb 14
Full
Feb 22
Last Quarter

Hourly Weather History & Observations

Time (CST) Temp. Windchill Dew Point Humidity Pressure Visibility Wind Dir Wind Speed Gust Speed Precip Events Conditions
12:15 AM 5.0 °F -15.7 °F -4.0 °F 66% 29.77 in 4.0 mi WNW 20.7 mph 27.6 mph N/A Snow Light Snow
12:35 AM 5.0 °F -16.2 °F -4.0 °F 66% 29.78 in 4.0 mi WNW 21.9 mph 27.6 mph N/A   Haze
12:55 AM 3.2 °F -17.1 °F -4.0 °F 72% 29.80 in 3.0 mi WNW 18.4 mph 27.6 mph N/A Snow Light Snow
1:15 AM 3.2 °F -17.1 °F -4.0 °F 72% 29.81 in 4.0 mi WNW 18.4 mph 29.9 mph N/A   Haze
1:35 AM 3.2 °F -15.9 °F -5.8 °F 66% 29.83 in 7.0 mi WNW 16.1 mph 23.0 mph N/A   Clear
1:55 AM 3.2 °F -15.9 °F -5.8 °F 66% 29.85 in 3.0 mi WNW 16.1 mph 32.2 mph N/A Snow Light Snow
2:15 AM 3.2 °F -19.0 °F -5.8 °F 66% 29.87 in 4.0 mi WNW 23.0 mph 34.5 mph N/A   Haze
2:35 AM 3.2 °F -17.1 °F -7.6 °F 61% 29.89 in 5.0 mi WNW 18.4 mph 32.2 mph N/A   Haze
2:55 AM 1.4 °F -18.2 °F -7.6 °F 66% 29.91 in 7.0 mi WNW 16.1 mph 26.5 mph N/A   Clear
3:15 AM 1.4 °F -19.9 °F -7.6 °F 66% 29.93 in 5.0 mi WNW 19.6 mph 26.5 mph N/A   Haze
3:35 AM 1.4 °F -21.0 °F -9.4 °F 61% 29.95 in 4.0 mi WNW 21.9 mph 29.9 mph N/A Snow Light Snow
3:55 AM 1.4 °F -16.1 °F -11.2 °F 56% 29.97 in 7.0 mi WNW 12.7 mph - N/A   Clear
4:15 AM 1.4 °F -18.2 °F -9.4 °F 61% 29.98 in 7.0 mi WNW 16.1 mph 24.2 mph N/A   Clear
4:35 AM -0.4 °F -19.9 °F -9.4 °F 66% 29.99 in 7.0 mi WNW 15.0 mph - N/A   Clear
4:55 AM -0.4 °F -19.9 °F -9.4 °F 66% 30.01 in 10.0 mi West 15.0 mph 20.7 mph N/A   Clear
5:15 AM -0.4 °F -22.3 °F -9.4 °F 66% 30.02 in 4.0 mi WNW 19.6 mph 28.8 mph N/A   Haze
5:35 AM -0.4 °F -21.7 °F -13.0 °F 55% 30.03 in 7.0 mi WNW 18.4 mph 28.8 mph N/A   Clear
5:55 AM -2.2 °F -22.2 °F -13.0 °F 60% 30.04 in 7.0 mi WNW 15.0 mph 23.0 mph N/A   Clear
6:15 AM -2.2 °F -24.7 °F -13.0 °F 60% 30.06 in 10.0 mi WNW 19.6 mph 24.2 mph N/A   Clear
6:35 AM -4.0 °F -25.2 °F -14.8 °F 60% 30.06 in 7.0 mi WNW 16.1 mph 24.2 mph N/A   Clear
6:45 AM -4.0 °F -23.7 °F -14.8 °F 60% 30.06 in 7.0 mi WNW 13.8 mph 23.0 mph N/A   Clear
7:45 AM -4.0 °F -22.1 °F -14.8 °F 60% 30.11 in 10.0 mi West 11.5 mph 25.3 mph N/A   Clear
8:45 AM -4.0 °F -25.8 °F -16.6 °F 55% 30.14 in 10.0 mi WNW 17.3 mph 29.9 mph N/A   Clear
9:45 AM -5.8 °F -31.0 °F -16.6 °F 60% 30.16 in 10.0 mi WNW 23.0 mph 31.1 mph N/A   Clear
10:45 AM -5.8 °F -27.5 °F -18.4 °F 55% 30.20 in 10.0 mi WNW 16.1 mph 27.6 mph N/A   Clear
11:45 AM -5.8 °F -28.2 °F -18.4 °F 55% 30.21 in 10.0 mi WNW 17.3 mph 28.8 mph N/A   Clear
12:45 PM -4.0 °F -27.0 °F -18.4 °F 50% 30.21 in 10.0 mi WNW 19.6 mph 28.8 mph N/A   Clear
2:45 PM -4.0 °F -27.0 °F -18.4 °F 50% 30.24 in 10.0 mi West 19.6 mph 25.3 mph N/A   Clear
3:45 PM -4.0 °F -25.8 °F -18.4 °F 50% 30.26 in 10.0 mi WNW 17.3 mph 25.3 mph N/A   Clear
4:45 PM -5.8 °F -26.8 °F -20.2 °F 50% 30.27 in 10.0 mi West 15.0 mph 20.7 mph N/A   Clear
5:45 PM -5.8 °F -25.2 °F -20.2 °F 50% 30.29 in 10.0 mi West 12.7 mph - N/A   Clear
6:45 PM -5.8 °F -23.4 °F -20.2 °F 50% 30.31 in 10.0 mi West 10.4 mph 17.3 mph N/A   Clear
7:45 PM -7.6 °F -27.5 °F -20.2 °F 54% 30.33 in 10.0 mi West 12.7 mph - N/A   Clear
8:15 PM -5.8 °F -22.4 °F -20.2 °F 50% 30.33 in 10.0 mi West 9.2 mph 16.1 mph N/A   Clear
8:35 PM -5.8 °F -24.4 °F -20.2 °F 50% 30.33 in 10.0 mi West 11.5 mph - N/A   Clear
8:45 PM -7.6 °F -24.6 °F -20.2 °F 54% 30.34 in 10.0 mi West 9.2 mph - N/A   Clear
8:55 PM -7.6 °F -26.6 °F -20.2 °F 54% 30.33 in 10.0 mi West 11.5 mph - N/A   Clear
9:15 PM -7.6 °F -27.5 °F -20.2 °F 54% 30.34 in 10.0 mi WNW 12.7 mph - N/A   Clear
9:35 PM -7.6 °F -28.3 °F -20.2 °F 54% 30.34 in 10.0 mi West 13.8 mph - N/A   Clear
9:55 PM -7.6 °F -26.6 °F -20.2 °F 54% 30.35 in 10.0 mi West 11.5 mph - N/A   Clear
10:15 PM -7.6 °F -28.3 °F -20.2 °F 54% 30.35 in 10.0 mi West 13.8 mph - N/A   Clear
10:35 PM -7.6 °F -25.7 °F -20.2 °F 54% 30.36 in 10.0 mi West 10.4 mph - N/A   Clear
10:55 PM -7.6 °F -25.7 °F -20.2 °F 54% 30.36 in 10.0 mi West 10.4 mph - N/A   Clear
11:15 PM -7.6 °F -24.6 °F -20.2 °F 54% 30.35 in 10.0 mi West 9.2 mph - N/A   Clear
11:35 PM -7.6 °F -26.6 °F -20.2 °F 54% 30.35 in 10.0 mi West 11.5 mph - N/A   Clear
11:55 PM -7.6 °F -27.5 °F -20.2 °F 54% 30.35 in 10.0 mi West 12.7 mph 17.3 mph N/A   Clear